GW3787 Weather Reports


Display with metric or nautical units.
time (UTC)temp
F
wind
direction
speed
MPH
gust
MPH
rain 1hr
in
rain 24hr
in
rain mn
in
humidity
%
barometer
mb
20260507083024 42 338 1.0 3.0 0.00 0.01 0.00 66 1007.5
20260507081523 44 338 0.0 0.0 0.00 0.01 0.00 67 1007.6
20260507080023 42 338 0.0 0.0 0.00 0.01 0.00 74 1007.7
20260507074521 42 338 0.0 0.0 0.00 0.01 0.00 74 1007.7
20260507073020 42 338 0.0 0.0 0.00 0.01 0.00 72 1007.7
20260507071520 42 338 0.0 3.0 0.00 0.01 0.00 70 1007.5
20260507070019 43 306 0.0 8.0 0.00 0.01 0.00 68 1007.5
20260507064516 42 318 3.0 5.0 0.00 0.01 0.00 66 1007.0
20260507063026 42 324 0.0 4.0 0.01 0.01 0.00 68 1007.2
20260507061512 42 355 2.0 5.0 0.01 0.01 0.00 66 1007.4
20260507060010 46 356 0.0 5.0 0.01 0.01 0.01 59 1007.6
20260507054507 48 43 0.0 5.0 0.01 0.01 0.01 54 1007.8
20260507053007 51 35 0.0 4.0 0.00 0.00 0.00 45 1008.0
20260507051508 52 66 0.0 10.0 0.00 0.00 0.00 36 1008.1
20260507050006 53 76 6.0 11.0 0.00 0.00 0.00 34 1007.2
20260507044505 54 59 0.0 4.0 0.00 0.00 0.00 37 1006.9
20260507043004 54 59 0.0 3.0 0.00 0.00 0.00 37 1007.3
20260507041525 55 59 0.0 0.0 0.00 0.00 0.00 34 1007.2
20260507040026 56 59 0.0 0.0 0.00 0.00 0.00 33 1006.9
20260507034532 56 59 0.0 5.0 0.00 0.00 0.00 34 1007.0
20260507033024 55 59 4.0 7.0 0.00 0.00 0.00 34 1007.0
20260507031523 54 59 1.0 3.0 0.00 0.00 0.00 35 1006.6
20260507030023 59 59 0.0 0.0 0.00 0.00 0.00 31 1006.5
20260507024526 60 59 0.0 4.0 0.00 0.00 0.00 31 1006.5
20260507023025 62 58 3.0 6.0 0.00 0.00 0.00 29 1006.2
20260507021521 63 54 3.0 6.0 0.00 0.00 0.00 28 1006.2
20260507020029 64 34 0.0 0.0 0.00 0.00 0.00 26 1006.4
20260507014518 66 34 0.0 5.0 0.00 0.00 0.00 25 1006.6
20260507013033 67 34 3.0 8.0 0.00 0.00 0.00 23 1006.8
20260507011516 68 24 1.0 8.0 0.00 0.00 0.00 23 1006.8
20260507010015 69 5 3.0 8.0 0.00 0.00 0.00 22 1006.9
20260507004513 70 29 1.0 10.0 0.00 0.00 0.00 22 1007.1
20260507003011 69 29 6.0 13.0 0.00 0.00 0.00 21 1007.3
20260507001509 70 322 5.0 15.0 0.00 0.00 0.00 21 1007.5
20260507000008 69 289 10.0 18.0 0.00 0.00 0.00 22 1007.5
20260506234510 69 302 9.0 17.0 0.00 0.00 0.00 22 1007.7
20260506233006 69 314 4.0 10.0 0.00 0.00 0.00 23 1007.9
20260506231503 69 309 1.0 14.0 0.00 0.00 0.00 23 1008.2
20260506230001 70 325 6.0 20.0 0.00 0.00 0.00 22 1008.5
20260506224600 69 293 6.0 13.0 0.00 0.00 0.00 23 1008.5
20260506223057 68 67 2.0 11.0 0.00 0.00 0.00 23 1008.8
20260506221559 68 325 1.0 11.0 0.00 0.00 0.00 23 1009.3
20260506220056 68 30 4.0 11.0 0.00 0.00 0.00 22 1009.6
20260506214552 68 324 0.0 15.0 0.00 0.00 0.00 24 1009.9
20260506213047 67 305 2.0 10.0 0.00 0.00 0.00 25 1010.3
20260506211543 66 318 2.0 9.0 0.00 0.00 0.00 27 1010.6
20260506210041 66 317 2.0 10.0 0.00 0.00 0.00 24 1011.0
20260506204538 64 322 8.0 16.0 0.00 0.00 0.00 25 1011.2
20260506203034 63 289 3.0 11.0 0.00 0.00 0.00 24 1011.6
20260506201534 62 330 2.0 9.0 0.00 0.00 0.00 26 1011.9
20260506200038 63 20 2.0 11.0 0.00 0.00 0.00 24 1012.1
20260506194526 61 245 6.0 16.0 0.00 0.00 0.00 25 1012.5
20260506193024 59 209 6.0 18.0 0.00 0.00 0.00 25 1012.9
20260506191520 59 262 5.0 15.0 0.00 0.00 0.00 25 1013.2
20260506190017 58 210 1.0 15.0 0.00 0.00 0.00 26 1013.6
20260506184514 57 244 8.0 15.0 0.00 0.00 0.00 26 1014.0
20260506183011 57 205 10.0 18.0 0.00 0.00 0.00 25 1014.2
20260506181513 56 243 7.0 13.0 0.00 0.00 0.00 25 1014.5
20260506180005 55 222 11.0 18.0 0.00 0.00 0.00 25 1014.8
20260506174600 54 234 13.0 24.0 0.00 0.00 0.00 26 1015.0
20260506173108 54 218 11.0 19.0 0.00 0.00 0.00 28 1015.4
20260506171554 53 224 9.0 20.0 0.00 0.00 0.00 29 1015.6
20260506170049 52 245 13.0 18.0 0.00 0.00 0.00 30 1016.1
20260506164554 51 237 13.0 20.0 0.00 0.00 0.00 31 1016.4
20260506163042 50 230 10.0 21.0 0.00 0.00 0.00 34 1016.4
20260506161534 50 245 12.0 21.0 0.00 0.00 0.00 34 1016.7
20260506160030 49 237 15.0 19.0 0.00 0.00 0.00 35 1017.0
20260506154525 48 232 12.0 17.0 0.00 0.00 0.00 37 1017.2
20260506153021 47 220 11.0 20.0 0.00 0.00 0.00 41 1017.5
20260506151517 46 254 13.0 18.0 0.00 0.00 0.00 40 1017.9
20260506150012 46 242 14.0 18.0 0.00 0.00 0.00 42 1018.1
20260506144507 45 253 15.0 20.0 0.00 0.00 0.00 43 1018.3
20260506143006 44 240 13.0 17.0 0.00 0.00 0.00 44 1018.4
20260506141612 43 226 12.0 18.0 0.00 0.00 0.00 42 1018.5
20260506140056 42 226 11.0 19.0 0.00 0.00 0.00 41 1018.8
20260506134553 42 228 10.0 19.0 0.00 0.00 0.00 41 1019.0
20260506133051 40 241 12.0 15.0 0.00 0.00 0.00 42 1019.0
20260506131545 39 231 10.0 16.0 0.00 0.00 0.00 43 1019.1
20260506130042 39 252 11.0 14.0 0.00 0.00 0.00 45 1019.3
20260506124540 37 253 10.0 14.0 0.00 0.00 0.00 48 1019.5
20260506123041 35 251 7.0 11.0 0.00 0.00 0.00 52 1019.6
20260506121530 33 254 8.0 11.0 0.00 0.00 0.00 54 1019.7
20260506120036 33 245 8.0 12.0 0.00 0.00 0.00 54 1019.8
20260506114526 32 276 4.0 11.0 0.00 0.00 0.00 55 1019.9
20260506113025 33 268 5.0 9.0 0.00 0.00 0.00 56 1020.0
20260506111521 31 255 5.0 10.0 0.00 0.00 0.00 59 1020.3
20260506110024 31 272 0.0 9.0 0.00 0.00 0.00 58 1020.4
20260506104517 32 280 3.0 7.0 0.00 0.00 0.00 60 1020.7
20260506103025 27 267 1.0 7.0 0.00 0.00 0.00 67 1020.7
20260506101513 25 269 6.0 8.0 0.00 0.00 0.00 68 1020.8
20260506100010 25 298 3.0 5.0 0.00 0.00 0.00 68 1021.0
20260506094525 26 298 4.0 5.0 0.00 0.00 0.00 68 1021.0
20260506093008 26 298 2.0 7.0 0.00 0.00 0.00 65 1021.2
20260506091506 28 298 2.0 4.0 0.00 0.00 0.00 64 1021.2
20260506090004 25 299 3.0 7.0 0.00 0.00 0.00 70 1021.3
20260506084502 24 311 3.0 5.0 0.00 0.00 0.00 70 1021.3
20260506083059 25 334 0.0 3.0 0.00 0.00 0.00 69 1021.3